Location: Meadowbank Aerodrome
(65.0250°N, 96.0705°W)
Time: 23:23:26
(UTC-05:00)

Cosmos 2221 - Visible Passes

Search period start: 01 October 2014 00:00
Search period end: 11 October 2014 00:00
Orbit: 597 x 623 km, 82.5° (Epoch: 01 October)

Date Brightness Start Highest point End Pass type
(mag) Time Alt. Az. Time Alt. Az. Time Alt. Az.
01 Oct 5.7 03:10:29 10° N 03:12:59 15° NE 03:15:29 10° ENE visible
01 Oct 4.0 04:47:46 10° N 04:51:53 40° ENE 04:55:59 10° SE visible
01 Oct 2.7 06:25:32 10° NNW 06:29:45 51° W 06:33:57 10° S visible
01 Oct 3.9 20:45:44 10° SW 20:49:51 43° WNW 20:54:00 10° NNE visible
01 Oct 5.7 22:26:04 10° WNW 22:28:41 16° NW 22:31:19 10° N visible
02 Oct 5.4 03:24:55 10° N 03:27:55 18° NE 03:30:56 10° E visible
02 Oct 3.4 05:02:19 10° NNW 05:06:36 54° ENE 05:10:52 10° SE visible
02 Oct 3.1 06:40:13 10° NNW 06:44:13 37° W 06:48:13 10° SSW visible
02 Oct 4.4 21:00:42 10° WSW 21:04:36 33° NW 21:08:32 10° N visible
02 Oct 5.8 22:41:36 10° WNW 22:43:39 13° NNW 22:45:43 10° N visible
03 Oct 6.0 02:02:59 10° NNE 02:03:25 10° NNE 02:03:51 10° NNE visible
03 Oct 5.1 03:39:23 10° N 03:42:49 22° NE 03:46:15 10° E visible
03 Oct 2.8 05:16:53 10° NNW 05:21:15 74° ENE 05:25:36 10° SSE visible
03 Oct 2.5 19:36:49 10° SSW 19:41:07 89° ESE 19:45:28 10° NNE visible
03 Oct 4.9 21:15:46 10° WSW 21:19:24 26° NW 21:23:03 10° N visible
03 Oct 5.9 22:57:22 10° NW 22:58:40 11° NNW 22:59:58 10° N visible
04 Oct 5.9 02:16:50 10° N 02:18:27 12° NNE 02:20:04 10° NE visible
04 Oct 4.6 03:53:52 10° N 03:57:39 28° NE 04:01:25 10° ESE visible
04 Oct 2.4 05:31:29 10° NNW 05:35:50 81° WSW 05:40:13 10° S visible
04 Oct 3.0 19:51:27 10° SSW 19:55:44 67° WNW 20:00:03 10° NNE visible
04 Oct 5.3 21:30:59 10° W 21:34:15 21° NW 21:37:32 10° N visible
05 Oct 5.7 02:31:09 10° N 02:33:26 14° NNE 02:35:44 10° ENE visible
05 Oct 4.1 04:08:23 10° N 04:12:25 36° ENE 04:16:28 10° SE visible
05 Oct 2.5 05:46:06 10° NNW 05:50:23 59° W 05:54:40 10° S visible
05 Oct 3.6 20:06:13 10° SW 20:10:23 49° WNW 20:14:37 10° NNE visible
05 Oct 5.5 21:46:18 10° W 21:49:08 17° NW 21:51:59 10° N visible
06 Oct 5.4 02:45:32 10° N 02:48:23 17° NE 02:51:14 10° E visible
06 Oct 3.5 04:22:55 10° NNW 04:27:08 48° ENE 04:31:23 10° SE visible
06 Oct 2.9 06:00:45 10° NNW 06:04:51 42° W 06:08:58 10° SSW visible
06 Oct 4.2 20:21:06 10° SW 20:25:06 36° WNW 20:29:09 10° N visible
06 Oct 5.6 22:01:46 10° WNW 22:04:04 14° NNW 22:06:24 10° N visible
07 Oct 5.1 02:59:59 10° N 03:03:16 20° NE 03:06:34 10° E visible
07 Oct 2.9 04:37:27 10° NNW 04:41:48 65° ENE 04:46:09 10° SSE visible
07 Oct 3.3 06:15:27 10° NNW 06:19:16 31° W 06:23:06 10° SSW visible
07 Oct 4.7 20:36:07 10° WSW 20:39:52 28° NW 20:43:39 10° N visible
07 Oct 5.7 22:17:24 10° NW 22:19:03 12° NNW 22:20:43 10° N visible
08 Oct 5.8 01:37:32 10° N 01:38:50 11° NNE 01:40:09 10° NE visible
08 Oct 4.7 03:14:27 10° N 03:18:07 26° NE 03:21:47 10° ESE visible
08 Oct 2.5 04:52:01 10° NNW 04:56:24 89° ENE 05:00:48 10° SSE visible
08 Oct 3.7 06:30:13 10° NNW 06:33:38 23° W 06:37:03 10° SW visible
08 Oct 2.8 19:11:57 10° SSW 19:16:15 76° WNW 19:20:37 10° NNE visible
08 Oct 5.1 20:51:15 10° W 20:54:41 23° NW 20:58:08 10° N visible
08 Oct 5.9 22:33:25 10° NNW 22:34:04 10° NNW 22:34:42 10° NNW visible
09 Oct 5.6 01:51:45 10° N 01:53:50 13° NNE 01:55:55 10° ENE visible
09 Oct 4.2 03:28:56 10° N 03:32:54 32° NE 03:36:52 10° ESE visible
09 Oct 2.4 05:06:36 10° NNW 05:10:57 67° WSW 05:15:18 10° S visible
09 Oct 4.0 06:45:08 10° NW 06:47:56 17° W 06:50:45 10° WSW visible
09 Oct 3.4 19:26:39 10° SW 19:30:53 55° WNW 19:35:10 10° NNE visible
09 Oct 5.4 21:06:30 10° W 21:09:32 18° NW 21:12:36 10° N visible
10 Oct 5.4 02:06:07 10° N 02:08:47 16° NE 02:11:27 10° ENE visible
10 Oct 3.7 03:43:27 10° NNW 03:47:37 43° ENE 03:51:49 10° SE visible
10 Oct 2.7 05:21:13 10° NNW 05:25:26 48° W 05:29:20 12° S visible
10 Oct 4.3 07:00:20 10° NW 07:02:10 13° WNW 07:04:01 10° W visible
10 Oct 4.0 19:41:28 10° SW 19:45:33 41° WNW 19:49:42 10° N visible
10 Oct 5.5 21:21:53 10° WNW 21:24:27 15° NW 21:27:01 10° N visible
